Regional Weather Roundup
Issued by NWS Albany, NY

Home | Current Version | Previous Version | Text Only | Print | Product List | Glossary On
Versions: 1 2 3 4 5 6 7 8 9 10 11 12 13 14 15 16 17 18 19 20 21 22 23 24 25 26 27 28 29 30 31 32 33 34 35 36 37 38 39 40 41 42 43 44 45 46 47 48 49 50
000
ASUS41 KALY 220010
RWRALY

NEW YORK STATE HOURLY WEATHER ROUNDUP
NATIONAL WEATHER SERVICE ALBANY NY
800 PM EDT THU AUG 21 2014

NOTE: "FAIR" INDICATES FEW OR NO CLOUDS BELOW 12,000 FEET WITH NO
SIGNIFICANT WEATHER AND/OR NO OBSTRUCTIONS TO VISIBILITY.

NYZ032-033-038>043-046>054-057>066-NYZ062>081-220100-
EAST


CITY           SKY/WX    TMP DP  RH WIND       PRES   REMARKS
ALBANY         CLOUDY    74  64  71 SE9       30.00R
GLENS FALLS    CLOUDY    68  63  84 NE6       30.02R
POUGHKEEPSIE   CLOUDY    74  60  61 SE7       30.00R
NEWBURGH       TSTM      73  63  68 VRB6      30.02S
MONTGOMERY     LGT RAIN  72  63  73 S3        30.00S
WHITE PLAINS   CLOUDY    71  58  63 SE9       30.04R
ISLIP          MOCLDY    71  64  78 SE9       30.03R
NEW YORK CITY  MOCLDY    75  59  57 SE10      30.03R
CENTRAL PARK   MOCLDY    73  59  61 S8        30.06R
$$

NYZ005>009-017-018-044>046-055-056-220100-
CENTRAL


CITY           SKY/WX    TMP DP  RH WIND       PRES   REMARKS
FULTON         CLOUDY    70  66  87 E3        29.96S
SYRACUSE       TSTM      72  68  88 NW8       29.95R
ROME           MOCLDY    70  68  93 E9        29.97F
ELMIRA         LGT RAIN  72  68  88 SW7       29.97R
BINGHAMTON     CLOUDY    66  63  90 SE7       30.01S
MONTICELLO     CLOUDY    66  66 100 N3        30.05R
$$

NYZ026>034-041>043-220100-
NORTH


CITY           SKY/WX    TMP DP  RH WIND       PRES   REMARKS
WATERTOWN      CLOUDY    73  66  78 CALM      29.96R
FORT DRUM      NOT AVBL
MASSENA        CLOUDY    65  64  97 NE5       29.99S
SARANAC LAKE   CLOUDY    64  62  93 NE6       30.03S
PLATTSBURGH    CLOUDY    67  59  75 SE8       30.03S
$$

NYZ001>004-010>016-019>021-220100-
WEST


CITY           SKY/WX    TMP DP  RH WIND       PRES   REMARKS
NIAGARA FALLS  MOCLDY    76  63  64 CALM      29.95R
BUFFALO        MOCLDY    74  64  71 SW8       29.96S
DUNKIRK        PTCLDY    74  63  68 W3        29.97S
JAMESTOWN      CLEAR     70  64  83 N3        30.02S
WELLSVILLE     MOCLDY    71  63  75 N5        30.05R
ROCHESTER      MOCLDY    74  64  71 CALM      29.96S
PENN YAN       MOCLDY    73  69  87 CALM      29.98R
$$

             KEY
       WCI = WIND CHILL INDEX
       VSB = VISIBILITY
       HX  = HEAT INDEX
$$


USA.gov is the U.S. government's official web portal to all federal, state and local government web resources and services.